[[{"header":{"parameterUnit":"m.s-1","parameterCategory":1,"la1":30.2991,"la2":30.254,"lo1":-89.0895,"lo2":-89.0444,"dy":0.0017,"dx":0.0017,"nx":28,"ny":28,"refTime":"2024-06-16T03:00:00:Z","depth":0,"parameterNumber":2,"parameterNumberName":"U-component_of_WINDS"},"data":[0,0,0,0,0,0,0,0,0,0,0,0,0,0,0,0,0,0,0,0,0,0,0,0,0,0,0,0,0,0,0,0,0,0,0,0,0,0,0,0,0,0,0,0,0,0,0,0,0,0,0,0,0,0,0,0,0,0,-6.408,-6.4081,0,-6.4212,-6.4214,-6.4215,-6.4139,-6.4135,-6.4132,-6.4128,-6.4262,-6.4269,-6.4276,0,0,0,0,0,0,0,0,0,0,0,0,0,-6.3761,-6.3767,-6.408,-6.4081,-6.4083,-6.4212,-6.4214,-6.4215,-6.414,-6.4135,-6.4131,-6.4126,-6.426,-6.4268,-6.4277,0,0,0,0,0,0,0,0,0,0,0,0,0,-6.3897,-6.3769,-6.4079,-6.4061,-6.406,-6.4211,-6.4214,-6.4216,-6.4141,-6.4135,-6.4129,-6.4124,-6.4257,-6.4268,-6.4278,-6.4454,0,0,-6.431,-6.4315,0,0,0,0,0,0,0,0,-6.3889,-6.3909,-6.4062,-6.4062,-6.4062,-6.4153,-6.415,-6.4296,-6.4142,-6.411,-6.4128,-6.4122,-6.4231,-6.4243,-6.428,-6.4461,-6.4466,-6.4311,-6.4318,-6.4322,-6.4325,0,0,0,0,0,0,0,-6.388,-6.3903,-6.4132,-6.4064,-6.4064,-6.4046,-6.4059,-6.4178,-6.42,-6.4112,-6.4107,-6.4124,-6.423,-6.427,-6.4282,-6.4468,-6.4311,-6.432,-6.4327,-6.4331,-6.4801,-6.4807,0,0,0,0,0,0,-6.3872,-6.3895,-6.4128,-6.4136,-6.396,-6.4056,-6.4071,-6.413,-6.4198,-6.4204,-6.4129,-6.412,-6.4255,-6.427,-6.4287,-6.4497,-6.4322,-6.4332,-6.4338,-6.4795,-6.4802,-6.4809,0,0,0,0,0,0,-6.3866,-6.3894,-6.4122,-6.4014,-6.4042,-6.4067,-6.4134,-6.4135,-6.4175,-6.4211,-6.4214,-6.4166,-6.4251,-6.4272,-6.4413,-6.45,-6.4337,-6.4346,-6.4787,-6.4797,-6.4805,-6.4919,0,0,0,0,0,0,-6.3857,-6.3892,-6.3959,-6.4016,-6.4048,-6.4247,-6.414,-6.4142,-6.4194,-6.4184,-6.4246,-6.4251,-6.4248,-6.4398,-6.4424,-6.4512,-6.4354,-6.478,-6.4792,-6.4803,-6.4907,-6.4931,-6.4951,0,0,0,0,0,-6.3846,-6.3985,-6.3962,-6.3991,-6.4133,-6.4252,-6.427,-6.4264,-6.4201,-6.4269,-6.4292,-6.4249,-6.4488,-6.4413,-6.4442,-6.4534,-6.4774,-6.4788,-6.4802,-6.4897,-6.4926,-6.495,0,0,0,0,0,0,-6.3935,-6.3992,-6.3968,-6.413,-6.4187,-6.4239,-6.4323,-6.4294,-6.4369,-6.4357,-6.4346,-6.4361,-6.4508,-6.4536,-6.4452,-6.4709,-6.4621,-6.4641,-6.4684,-6.4712,-6.4733,-6.4721,-6.4363,0,0,0,0,0,-6.3975,-6.4067,-6.4112,-6.425,-6.4281,-6.4298,-6.4349,-6.434,-6.4398,-6.4421,-6.4455,-6.4513,-6.46,-6.4658,-6.4741,-6.4913,-6.4924,-6.4991,-6.5012,-6.503,-6.5046,-6.5138,-6.5168,-6.4854,-6.4854,-6.4854,0,0,-6.4055,-6.4098,-6.4156,-6.427,-6.4312,-6.4408,-6.4318,-6.4423,-6.4493,-6.4437,-6.4572,-6.4599,-6.4663,-6.482,-6.4891,-6.4848,-6.5136,-6.5048,-6.5061,-6.5068,-6.5156,-6.5185,-6.5211,-6.4864,-6.4862,-6.486,0,0,-6.425,-6.4293,-6.4413,-6.4458,-6.4525,-6.4536,-6.4565,-6.4623,-6.4638,-6.4774,-6.4734,-6.4819,-6.497,-6.5017,-6.5061,-6.5278,-6.5241,-6.5306,-6.5418,-6.5508,-6.5532,-6.5554,-6.5629,-6.5657,-6.5323,-6.5323,-6.5323,0,-6.4341,-6.4484,-6.4478,-6.4586,-6.4637,-6.4593,-6.4714,-6.4758,-6.4849,-6.4884,-6.4836,-6.5026,-6.5066,-6.5233,-6.5286,-6.5324,-6.5356,-6.5296,-6.5529,-6.5551,-6.5571,-6.5643,-6.5672,-6.533,-6.533,-6.5329,-6.5328,0,-6.4592,-6.4692,-6.4781,-6.487,-6.4932,-6.5046,-6.5057,-6.512,-6.5107,-6.5123,-6.5262,-6.531,-6.5401,-6.5441,-6.5429,-6.5607,-6.5578,-6.553,-6.5441,-6.5608,-6.5675,-6.5703,-6.5341,-6.5338,-6.5336,-6.5334,0,0,-6.4843,-6.493,-6.4962,-6.5002,-6.5074,-6.5151,-6.5264,-6.5354,-6.5408,-6.5473,-6.5566,-6.5698,-6.5654,-6.5704,-6.5698,-6.5777,-6.5944,-6.5719,-6.5721,-6.5757,-6.6142,-6.6174,-6.6206,-6.5922,-6.5928,-6.5932,-6.6135,0,-6.5041,-6.5237,-6.5237,-6.5418,-6.551,-6.5471,-6.557,-6.5625,-6.5644,-6.5725,-6.5746,-6.5839,-6.5775,-6.5805,-6.5883,-6.5907,-6.602,-6.5893,-6.6007,-6.6011,-6.5988,-6.6242,-6.6277,-6.6466,-6.6162,-6.6166,-6.6169,0,-6.5296,-6.537,-6.5561,-6.5621,-6.5659,-6.5748,-6.583,-6.5909,-6.5971,-6.598,-6.6037,-6.6019,-6.6134,-6.6046,-6.6203,-6.6117,-6.6164,-6.6184,-6.6191,-6.6198,-6.6097,-6.6253,-6.6526,-6.6554,-6.6211,-6.6208,-6.6205,0,-6.5456,-6.5605,-6.5738,-6.5774,-6.5847,-6.591,-6.5944,-6.6,-6.6055,-6.6129,-6.6164,-6.625,-6.6296,-6.6364,-6.6369,-6.6304,-6.6528,-6.644,-6.6537,-6.6537,-6.6582,-6.6578,-6.6864,-6.6619,-6.6619,-6.6618,-6.6618,0,-6.5674,-6.5792,-6.5811,-6.5892,-6.6024,-6.6023,-6.6153,-6.6181,-6.6232,-6.6318,-6.6292,-6.6373,-6.6377,-6.6462,-6.6467,-6.6596,-6.6618,-6.6628,-6.6627,-6.6628,-6.6626,-6.6656,-6.6641,-6.6626,-6.6624,-6.6623,-6.6621,0,-6.5873,-6.5891,-6.6033,-6.6093,-6.611,-6.6204,-6.6254,-6.6332,-6.6351,-6.6461,-6.6486,-6.6515,-6.6613,-6.6626,-6.674,-6.6744,-6.6899,-6.6886,-6.6877,-6.6874,-6.6969,-6.6959,-6.7281,-6.7322,-6.7054,-6.7056,-6.7058,0,-6.6009,-6.6099,-6.6169,-6.6225,-6.6262,-6.6353,-6.6409,-6.6413,-6.6473,-6.6552,-6.662,-6.6716,-6.6791,-6.6949,-6.698,-6.7068,-6.7055,-6.7162,-6.7067,-6.7066,-6.7053,-6.7046,-6.7054,-6.7178,-6.7181,-6.7184,-6.7186,0,-6.6248,-6.6253,-6.6335,-6.6422,-6.649,-6.6558,-6.6621,-6.6669,-6.6681,-6.675,-6.685,-6.6909,-6.7027,-6.7121,-6.7208,-6.7242,-6.7216,-6.7216,-6.7243,-6.7242,-6.7232,-6.7236,-6.6923,-6.7207,-6.7205,-6.7204,-6.7202,-6.7202,-6.6418,-6.6496,-6.6557,-6.665,-6.6699,-6.676,-6.6836,-6.6865,-6.6948,-6.7044,-6.7042,-6.7152,-6.7213,-6.7328,-6.7369,-6.7454,-6.7419,-6.7458,-6.7467,-6.7476,-6.7484,-6.7223,-6.7471,-6.747,-6.747,-6.7469,-6.7469,0,-6.6653,-6.6691,-6.6777,-6.6868,-6.6941,-6.6913,-6.6983,-6.7045,-6.7142,-6.7202,-6.7278,-6.7393,-6.7486,-6.7525,-6.7616,-6.7677,-6.7667,-6.77,-6.7694,-6.7702,-6.7512,-6.7478,-6.7706,-6.7706,-6.7706,-6.7706,-6.7706,-6.7706,-6.6783,-6.6913,-6.6926,-6.7081,-6.7118,-6.7225,-6.7268,-6.7324,-6.7372,-6.7502,-6.7578,-6.7604,-6.7656,-6.7751,-6.7834,-6.7844,-6.7877,-6.7915,-6.7919,-6.774,-6.7715,-6.7692,-6.766,-6.7923,-6.7923,-6.8101,-6.8103,-6.8104]},{"header":{"parameterUnit":"m.s-1","parameterCategory":1,"la1":30.2991,"la2":30.254,"lo1":-89.0895,"lo2":-89.0444,"dy":0.0017,"dx":0.0017,"nx":28,"ny":28,"refTime":"2024-06-16T03:00:00:Z","depth":0,"parameterNumber":3,"parameterNumberName":"V-component_of_WINDS"},"data":[0,0,0,0,0,0,0,0,0,0,0,0,0,0,0,0,0,0,0,0,0,0,0,0,0,0,0,0,0,0,0,0,0,0,0,0,0,0,0,0,0,0,0,0,0,0,0,0,0,0,0,0,0,0,0,0,0,0,1.9503,1.9502,0,1.9444,1.9444,1.9443,1.9382,1.9381,1.938,1.9379,1.9319,1.9318,1.9317,0,0,0,0,0,0,0,0,0,0,0,0,0,1.9563,1.9562,1.9503,1.9502,1.9502,1.9444,1.9444,1.9443,1.9382,1.9381,1.938,1.9379,1.9319,1.9318,1.9317,0,0,0,0,0,0,0,0,0,0,0,0,0,1.9524,1.9562,1.9503,1.9464,1.946,1.9445,1.9444,1.9443,1.9382,1.9381,1.9379,1.9378,1.9319,1.9318,1.9317,1.9335,0,0,1.9313,1.9312,0,0,0,0,0,0,0,0,1.9526,1.9522,1.9471,1.9467,1.9462,1.9419,1.9443,1.9407,1.9382,1.9412,1.9379,1.9378,1.9353,1.9349,1.9341,1.9332,1.9329,1.9313,1.9312,1.9312,1.9311,0,0,0,0,0,0,0,1.9529,1.9524,1.948,1.947,1.9465,1.945,1.9443,1.9435,1.939,1.9409,1.9404,1.9398,1.935,1.9342,1.9339,1.9329,1.9313,1.9312,1.9311,1.9311,1.9333,1.9334,0,0,0,0,0,0,1.9538,1.9527,1.9482,1.9478,1.9492,1.945,1.9442,1.9434,1.939,1.9382,1.9399,1.9396,1.9345,1.934,1.9336,1.9355,1.9312,1.931,1.931,1.9332,1.9333,1.9335,0,0,0,0,0,0,1.9539,1.9534,1.9484,1.9501,1.9494,1.945,1.9442,1.9434,1.9425,1.9383,1.9375,1.9399,1.9344,1.9338,1.9336,1.9352,1.931,1.9309,1.933,1.9332,1.9334,1.9392,0,0,0,0,0,0,1.9541,1.9535,1.9541,1.9502,1.9493,1.9484,1.9443,1.9433,1.9423,1.9418,1.938,1.9373,1.9342,1.9338,1.9335,1.9349,1.9308,1.9328,1.9331,1.9333,1.9388,1.9396,1.9402,0,0,0,0,0,1.9544,1.9559,1.9542,1.9537,1.9499,1.9485,1.948,1.9445,1.9425,1.9431,1.9404,1.9374,1.9351,1.9338,1.9334,1.9349,1.9327,1.933,1.9333,1.9385,1.9394,1.9402,0,0,0,0,0,0,1.9601,1.9553,1.9533,1.9537,1.9516,1.9475,1.9481,1.9455,1.9439,1.9434,1.9391,1.9383,1.9386,1.9367,1.9354,1.9365,1.9335,1.9337,1.9376,1.9384,1.9391,1.9395,1.9307,0,0,0,0,0,1.9614,1.9607,1.9565,1.9573,1.9563,1.9524,1.9517,1.9492,1.9468,1.9458,1.9431,1.9409,1.9397,1.939,1.9377,1.9386,1.9377,1.9394,1.9401,1.9407,1.9409,1.9413,1.942,1.9345,1.9345,1.9344,0,0,1.9641,1.9614,1.9612,1.9584,1.9564,1.9558,1.9517,1.9511,1.9506,1.9457,1.9453,1.9434,1.9406,1.941,1.9411,1.9395,1.9428,1.9411,1.9416,1.9414,1.9417,1.9424,1.9431,1.9347,1.9346,1.9346,0,0,1.9686,1.9665,1.9669,1.9651,1.9623,1.9597,1.9599,1.9562,1.9547,1.9543,1.9507,1.95,1.948,1.9462,1.9451,1.9493,1.9465,1.949,1.9524,1.9529,1.9535,1.954,1.9555,1.9561,1.9492,1.9492,1.9493,0,1.9723,1.9711,1.9674,1.9671,1.966,1.9617,1.9621,1.9606,1.9574,1.9568,1.9551,1.9526,1.9505,1.9504,1.9515,1.9507,1.9507,1.9493,1.9537,1.9542,1.9546,1.956,1.9566,1.9496,1.9495,1.9495,1.9495,0,1.9758,1.975,1.9757,1.9729,1.9719,1.9719,1.9683,1.9678,1.9655,1.9631,1.9628,1.9602,1.9582,1.9581,1.9557,1.9578,1.9569,1.9546,1.9515,1.9557,1.9569,1.9574,1.95,1.9499,1.9498,1.9497,0,0,1.9834,1.9788,1.9791,1.9778,1.9745,1.9738,1.9738,1.972,1.9716,1.9697,1.9695,1.9681,1.966,1.9647,1.9621,1.9626,1.9661,1.9602,1.9601,1.9613,1.9682,1.9699,1.9705,1.9643,1.9644,1.9645,1.9684,0,1.9873,1.9869,1.9837,1.9842,1.9835,1.9796,1.9796,1.9776,1.9755,1.9747,1.9723,1.9713,1.9686,1.9678,1.9681,1.9656,1.9674,1.9653,1.9641,1.9641,1.9647,1.9711,1.9729,1.9767,1.9688,1.9689,1.969,0,1.9916,1.9901,1.9906,1.9874,1.987,1.987,1.9852,1.9845,1.9822,1.9806,1.9794,1.9766,1.9763,1.9736,1.9733,1.9719,1.9713,1.97,1.9701,1.9697,1.9667,1.9708,1.9778,1.9784,1.9697,1.9696,1.9696,0,1.9971,1.9952,1.9952,1.9943,1.9906,1.9907,1.9892,1.9868,1.986,1.9844,1.9839,1.9823,1.9814,1.9803,1.9772,1.9755,1.9772,1.9742,1.9759,1.976,1.9763,1.9763,1.9831,1.9761,1.9761,1.9761,1.9761,0,2.0017,2.0021,1.9976,1.9976,1.9981,1.9945,1.9951,1.9932,1.9911,1.9908,1.9873,1.987,1.983,1.9823,1.9799,1.98,1.9797,1.9784,1.9777,1.9786,1.9788,1.978,1.9776,1.9762,1.9762,1.9762,1.9762,0,2.0077,2.0048,2.0046,2.0012,2.0004,2.0009,1.998,1.9979,1.9957,1.9953,1.995,1.9915,1.9905,1.9874,1.9856,1.984,1.9848,1.9836,1.9856,1.9851,1.9869,1.9868,1.9934,1.9941,1.9868,1.9869,1.9869,0,2.0107,2.011,2.0077,2.0073,2.0059,2.0052,2.0044,2.001,2.0003,1.9979,1.9981,1.9969,1.9957,1.9943,1.9916,1.9903,1.9889,1.9914,1.9887,1.9896,1.9889,1.9889,1.9889,1.9919,1.992,1.9921,1.9921,0,2.0164,2.015,2.0139,2.0125,2.0116,2.0103,2.0087,2.0086,2.0048,2.0042,2.0032,2.0023,2.0006,1.9994,1.9977,1.9961,1.9935,1.9931,1.9934,1.9942,1.9953,1.9947,1.987,1.9929,1.9928,1.9927,1.9927,1.9927,2.0209,2.021,2.0188,2.0178,2.0163,2.015,2.0148,2.0127,2.0118,2.0101,2.0083,2.0075,2.0054,2.0028,2.0015,2.0009,1.9995,1.9999,2.0,2.0001,2.0005,1.9956,2.0006,2.0005,2.0005,2.0005,2.0005,0,2.0263,2.0247,2.0239,2.0219,2.0212,2.019,2.0173,2.0168,2.0162,2.0145,2.0134,2.0124,2.0113,2.0086,2.0073,2.0073,2.0061,2.007,2.0069,2.0066,2.0019,2.0017,2.0081,2.0081,2.0081,2.0081,2.0081,2.0081,2.029,2.029,2.0274,2.0268,2.0252,2.0245,2.0237,2.0225,2.0212,2.0201,2.0192,2.0176,2.0155,2.0141,2.013,2.0122,2.0119,2.0132,2.0121,2.0077,2.0069,2.0062,2.0061,2.0132,2.0132,2.0168,2.0168,2.0169]}]]